Location: Les Martinières
(47.2667°N, 1.4410°E)
Time: 23:25:31
(UTC+00:00)

Cosmos 1726 Rocket - Pass Details

Date: 15 May 2026
Orbit: 555 x 660 km, 82.5° (Epoch: 6 June)

Event Time Altitude Azimuth Distance (km) Brightness Sun altitude
Exits shadow 21:25:49 32° 133° (SE) 975 4.0 -16.1°
Maximum altitude 21:26:59 40° 93° (E) 830 3.9 -16.3°
Drops below altitude 10° 21:30:47 10° 23° (NNE) 1,850 6.4 -16.6°
Sets 21:33:03 0° 16° (NNE) 2,755 7.5 -16.8°
